Total_Precipitation_Accumulation
1.59 1.53 1.54 1.45 1.44 1.43 1.40 1.50 1.70 1.50 1.01 0.78 0.75 0.74 0.71 0.75 0.86 0.82 0.74 0.85 0.99 1.01 1.10 1.20 1.27 1.36 1.70 2.42 3.45 4.19 4.13 3.51 2.83 2.54 2.73 3.18 3.70 4.19
1.59 1.62 1.60 1.50 1.44 1.43 1.43 1.41 1.45 1.57 1.32 0.86 0.79 0.81 0.83 0.83 0.93 0.87 0.84 0.97 1.02 0.98 1.03 1.10 1.18 1.30 1.45 1.74 2.37 3.38 4.05 4.01 3.45 2.97 2.90 3.15 3.43 3.92
1.49 1.53 1.52 1.47 1.47 1.45 1.43 1.35 1.29 1.38 1.43 0.95 0.79 0.81 0.88 0.93 0.97 0.94 0.93 0.94 0.95 0.95 1.00 1.09 1.15 1.25 1.39 1.58 1.85 2.48 3.39 3.96 4.00 3.61 3.35 3.35 3.41 3.54
1.59 1.52 1.48 1.49 1.55 1.51 1.46 1.36 1.25 1.21 1.33 1.16 0.85 0.83 0.91 0.99 1.05 1.08 1.08 1.06 1.01 1.07 1.08 1.12 1.18 1.21 1.33 1.50 1.70 2.01 2.60 3.40 3.93 3.95 3.63 3.40 3.27 3.35
1.84 1.80 1.71 1.67 1.71 1.67 1.58 1.42 1.28 1.19 1.19 1.21 1.00 0.88 0.94 1.03 1.16 1.18 1.17 1.16 1.09 1.15 1.18 1.21 1.24 1.23 1.29 1.41 1.58 1.78 2.04 2.45 3.05 3.65 3.88 3.69 3.36 3.27
2.02 1.96 1.97 1.93 1.87 1.82 1.79 1.57 1.35 1.28 1.23 1.27 1.15 0.99 0.96 1.04 1.30 1.42 1.40 1.32 1.24 1.14 1.19 1.22 1.28 1.29 1.29 1.29 1.37 1.52 1.77 2.15 2.59 3.18 3.75 3.89 3.58 3.34
1.81 1.75 1.81 1.96 2.03 2.02 2.01 1.83 1.66 1.61 1.52 1.49 1.36 1.20 1.10 1.19 1.42 1.49 1.57 1.49 1.48 1.31 1.18 1.13 1.13 1.15 1.17 1.24 1.32 1.41 1.60 1.85 2.14 2.60 3.21 3.74 3.80 3.63
1.64 1.56 1.55 1.67 1.75 1.80 1.92 1.94 1.95 2.00 1.95 1.80 1.61 1.44 1.24 1.19 1.32 1.61 1.73 1.82 1.87 1.54 1.35 1.29 1.16 1.20 1.20 1.19 1.28 1.32 1.49 1.73 1.95 2.23 2.66 3.19 3.64 3.79
1.41 1.39 1.37 1.38 1.49 1.38 1.52 1.65 1.73 1.90 2.03 1.99 1.92 1.61 1.38 1.30 1.47 1.72 1.80 1.89 1.85 1.66 1.64 1.74 1.49 1.38 1.30 1.30 1.37 1.33 1.46 1.65 1.83 2.04 2.32 2.67 3.15 3.62
1.40 1.27 1.21 1.21 1.36 1.41 1.44 1.44 1.37 1.48 1.72 1.86 1.96 1.77 1.55 1.54 1.76 2.00 2.13 2.16 2.02 1.90 1.85 2.02 1.73 1.54 1.44 1.39 1.40 1.36 1.39 1.50 1.67 1.84 2.07 2.29 2.64 3.09
1.49 1.40 1.30 1.16 1.42 1.55 1.43 1.34 1.22 1.26 1.43 1.70 1.88 1.89 1.89 1.96 2.11 2.36 2.51 2.58 2.49 2.14 1.95 2.05 1.91 1.69 1.63 1.64 1.57 1.50 1.37 1.37 1.49 1.64 1.77 1.95 2.19 2.57
1.49 1.46 1.56 1.47 1.55 1.50 1.32 1.33 1.35 1.21 1.17 1.25 1.35 1.44 1.45 1.52 1.81 2.03 2.24 2.48 2.46 2.44 2.06 2.03 2.05 2.00 2.20 1.88 1.60 1.38 1.26 1.27 1.33 1.43 1.51 1.62 1.79 1.92
1.53 1.45 1.45 1.62 1.55 1.46 1.37 1.32 1.43 1.27 1.14 1.20 1.22 1.23 1.26 1.36 1.46 1.64 1.89 2.14 2.36 2.38 2.03 2.15 2.40 2.18 2.28 2.13 1.79 1.48 1.20 1.08 1.11 1.26 1.36 1.47 1.55 1.60
1.46 1.30 1.33 1.52 1.50 1.49 1.39 1.43 1.49 1.41 1.27 1.26 1.20 1.15 1.19 1.29 1.37 1.46 1.63 1.79 1.92 2.03 1.90 2.08 2.57 2.41 2.31 2.06 1.84 1.69 1.40 1.16 1.06 1.10 1.15 1.41 1.48 1.54
1.55 1.58 1.54 1.54 1.48 1.35 1.34 1.39 1.38 1.32 1.37 1.34 1.19 1.09 1.09 1.19 1.28 1.40 1.47 1.57 1.68 1.78 1.88 1.96 2.26 2.40 2.41 2.23 1.81 1.63 1.62 1.49 1.20 1.11 1.11 1.14 1.23 1.35
1.66 1.66 1.64 1.60 1.49 1.41 1.41 1.30 1.20 1.26 1.35 1.29 1.19 1.13 1.10 1.16 1.26 1.34 1.45 1.51 1.69 1.77 1.83 1.92 2.09 2.41 2.48 2.04 1.84 1.68 1.50 1.64 1.46 1.15 1.06 1.10 1.14 1.15
1.68 1.66 1.59 1.53 1.50 1.39 1.30 1.23 1.20 1.24 1.27 1.18 1.18 1.22 1.20 1.21 1.24 1.25 1.38 1.48 1.64 1.66 1.77 1.95 2.02 2.20 2.34 2.23 2.10 1.75 1.47 1.37 1.32 1.17 1.11 1.21 1.28 1.25
1.66 1.55 1.38 1.31 1.29 1.25 1.22 1.19 1.18 1.17 1.11 1.12 1.16 1.20 1.22 1.23 1.24 1.23 1.31 1.45 1.54 1.52 1.61 1.82 2.02 2.30 2.46 2.48 2.29 1.89 1.59 1.41 1.33 1.21 1.10 1.21 1.42 1.42
1.42 1.26 1.14 1.15 1.15 1.11 1.08 1.06 1.04 1.00 1.03 1.09 1.13 1.15 1.18 1.21 1.24 1.28 1.31 1.39 1.43 1.44 1.52 1.68 2.00 2.35 2.48 2.50 2.55 2.18 1.87 1.61 1.50 1.46 1.29 1.19 1.35 1.40
1.19 1.15 1.10 1.07 1.07 1.06 1.01 0.97 0.94 0.95 1.03 1.11 1.10 1.07 1.09 1.17 1.21 1.21 1.24 1.34 1.42 1.47 1.51 1.60 1.90 2.27 2.48 2.37 2.42 2.40 2.28 1.94 1.69 1.67 1.50 1.30 1.26 1.43
1.15 1.08 1.05 1.05 1.03 1.00 0.98 0.96 0.98 1.00 1.01 1.07 1.08 1.04 1.04 1.13 1.16 1.11 1.15 1.29 1.41 1.48 1.53 1.54 1.70 2.03 2.21 2.15 2.13 2.12 2.25 2.31 1.97 1.76 1.62 1.59 1.57 1.64
1.11 1.10 1.05 1.05 1.04 1.01 1.01 1.02 1.02 0.99 0.97 0.99 0.99 0.99 1.01 1.06 1.11 1.08 1.13 1.23 1.29 1.35 1.43 1.45 1.53 1.87 2.18 2.28 2.13 1.99 2.11 2.28 2.32 2.04 1.78 1.75 2.00 2.30
1.16 1.15 1.11 1.06 1.01 0.98 0.98 0.97 0.96 0.93 0.89 0.91 0.92 0.91 0.95 1.00 1.00 1.03 1.06 1.12 1.18 1.22 1.30 1.42 1.51 1.76 2.08 2.21 2.17 2.00 1.97 2.06 2.17 2.20 2.21 1.93 1.59 1.49